Terug naar catalogus

COSMOS 2251 DEB

LostLEO
NORAD 36007·DEBRIS·🇷🇺 Russia

Gelanceerd Jun 16, 1993 vanaf Plesetsk Cosmodrome

Loading…

Volgende Passages (komende 24 uur)

TLE

VerouderdSource: Space-Track

Epoch: Nov 15, 2021, 14:29 UTC

1 36007U 93036AWZ 21319.60394819  .00000643  00000-0  11321-3 0  9997
2 36007  74.0232  72.8530 0106213 218.8917 140.4578 14.66283733105187

Volg COSMOS 2251 DEB in realtime met AllMySat

Download on the App Store